Weather History for KMHE - December, 2012

Change the Weather History Date:

Friday, December 14, 2012

  Actual Average Record
Temperature  
Mean Temperature 34 °F 21 °F  
Max Temperature 52 °F 30 °F 65 °F (1998)
Min Temperature 14 °F 12 °F -25 °F (1917)
Degree Days  
Heating Degree Days 32 44  
Month to date heating degree days 424 591  
Since 1 July heating degree days 1950 2159  
Cooling Degree Days 0 0  
Month to date cooling degree days 0 0  
Year to date cooling degree days 1236 824  
Moisture  
Dew Point 22 °F    
Average Humidity 64    
Maximum Humidity 92    
Minimum Humidity 36    
Precipitation  
Precipitation T in 0.01 in 1.00 in (1996)
Month to date precipitation 0.33 0.26  
Year to date precipitation 21.49 21.33  
Snow  
Snow 0.00 in - 8.00 in (1922)
Month to date snowfall 3.5  
Since 1 July snowfall 4.2  
Snow Depth 0.00 in    
Sea Level Pressure  
Sea Level Pressure 29.87 in    
Wind  
Wind Speed 7 mph (SE)    
Max Wind Speed 15 mph    
Max Gust Speed 18 mph    
Visibility 8 miles    
Events Rain    
T = Trace of Precipitation, MM = Missing Value Source: NWS Daily Summary

Daily Weather History Graph

Daily Weather History Graph

Search for Another Location

Airport or City:

Trip Planner

Search our weather history database for the weather conditions in past years. The results will help you decide how hot, cold, wet, or windy it might be!

Date:

Astronomy

Dec. 14, 2012 Rise Set
Actual Time 7:58 AM CST 4:55 PM CST
Civil Twilight 7:25 AM CST 5:28 PM CST
Nautical Twilight 6:49 AM CST 6:04 PM CST
Astronomical Twilight 6:14 AM CST 6:39 PM CST
Moon 9:03 AM CST (12/14) 6:51 PM CST (12/14)
Length of Visible Light 10h 02m
Length of Day
8h 56m
Waxing Crescent, 3% of the Moon is Illuminated
Dec 14
Waxing Crescent
Dec 19
First Quarter
Dec 28
Full
Jan 4
Last Quarter
Jan 11
New

Hourly Weather History & Observations

Time (CST) Temp. Windchill Dew Point Humidity Pressure Visibility Wind Dir Wind Speed Gust Speed Precip Events Conditions
12:53 AM 15.1 °F 9.4 °F 12.0 °F 88% 30.10 in 6.0 mi SE 3.5 mph - N/A   Clear
1:53 AM 16.0 °F 5.3 °F 12.0 °F 84% 30.09 in 7.0 mi SSE 8.1 mph - N/A   Clear
2:53 AM 19.0 °F 6.8 °F 15.1 °F 85% 30.07 in 7.0 mi SE 11.5 mph - N/A   Clear
3:53 AM 18.0 °F 7.7 °F 15.1 °F 88% 30.05 in 6.0 mi SSE 8.1 mph - N/A   Clear
4:53 AM 19.0 °F 6.8 °F 15.1 °F 85% 30.02 in 6.0 mi SSE 11.5 mph - N/A   Clear
5:53 AM 19.0 °F 8.2 °F 15.1 °F 85% 30.01 in 6.0 mi SE 9.2 mph - N/A   Clear
6:53 AM 19.9 °F 9.3 °F 16.0 °F 85% 30.00 in 7.0 mi SE 9.2 mph - N/A   Clear
7:53 AM 21.0 °F 10.6 °F 17.1 °F 85% 30.00 in 6.0 mi SSE 9.2 mph - N/A   Clear
8:53 AM 23.0 °F 13.1 °F 19.0 °F 85% 29.99 in 6.0 mi SSE 9.2 mph - N/A   Clear
9:53 AM 27.0 °F 20.5 °F 19.9 °F 75% 29.98 in 7.0 mi SE 5.8 mph - N/A   Clear
10:53 AM 28.9 °F 21.9 °F 21.9 °F 75% 29.96 in 8.0 mi SE 6.9 mph - N/A   Clear
11:53 AM 48.9 °F - 23.0 °F 36% 29.88 in 10.0 mi ESE 8.1 mph - N/A   Clear
12:53 PM 52.0 °F - 26.1 °F 37% 29.83 in 10.0 mi SE 8.1 mph - N/A   Clear
1:53 PM 50.0 °F - 27.0 °F 41% 29.79 in 10.0 mi SE 13.8 mph - N/A   Clear
2:53 PM 48.9 °F - 26.1 °F 41% 29.76 in 10.0 mi SE 11.5 mph - N/A   Clear
3:53 PM 37.0 °F 29.8 °F 28.0 °F 70% 29.75 in 10.0 mi SE 10.4 mph - N/A   Clear
4:53 PM 35.1 °F 28.6 °F 27.0 °F 72% 29.75 in 10.0 mi SE 8.1 mph - N/A   Clear
5:53 PM 36.0 °F 29.0 °F 27.0 °F 70% 29.73 in 10.0 mi SE 9.2 mph - N/A   Clear
6:53 PM 35.1 °F 30.1 °F 28.0 °F 76% 29.71 in 10.0 mi ESE 5.8 mph - N/A   Clear
7:53 PM 35.1 °F 30.1 °F 28.0 °F 76% 29.70 in 10.0 mi SSE 5.8 mph - N/A   Clear
8:53 PM 35.1 °F - 28.0 °F 76% 29.69 in 10.0 mi Calm Calm - N/A   Scattered Clouds
9:53 PM 35.1 °F - 30.0 °F 82% 29.67 in 10.0 mi Calm Calm - 0.00 in   Overcast
10:53 PM 36.0 °F 32.1 °F 30.9 °F 82% 29.64 in 10.0 mi SSE 4.6 mph - 0.00 in Rain Light Rain
11:53 PM 37.0 °F - 32.0 °F 82% 29.62 in 10.0 mi Calm Calm - 0.00 in   Overcast